When you browse on this site, cookies collect data to enhance your experience and personalize the content and advertising you see.
Visit our Privacy Policy to learn more. By continuing to use the site, you agree to this use of cookies and data.
  • In Hungary
  • List of Countries
  • For 7 days
  • Water Temperature
  • Satellite Maps
  • Weather Map
  • News
  • Weather Widgets
  • user-avatar
    Login

    Hourly Weather Melun

    Today, 18 March, Monday

    Time Temperature Precipitation Wind Pressure Humidity
    00:00 +3°C° 0 mm 4 mps 758 mmHg 84%
    01:00 +3°C° 0 mm 4 mps 758 mmHg 85%
    02:00 +3°C° 0 mm 4 mps 758 mmHg 86%
    03:00 +1°C° 0 mm 4 mps 758 mmHg 87%
    04:00 +1°C° 0 mm 4 mps 759 mmHg 89%
    05:00 +1°C° 0 mm 4 mps 759 mmHg 91%
    06:00 +2°C° 0 mm 3 mps 759 mmHg 93%
    07:00 +3°C° 0 mm 3 mps 760 mmHg 88%
    08:00 +5°C° 0 mm 3 mps 760 mmHg 83%
    09:00 +7°C° 0 mm 3 mps 761 mmHg 78%
    10:00 +8°C° 0.1 mm 3 mps 761 mmHg 71%
    11:00 +10°C° 0.1 mm 4 mps 761 mmHg 63%
    12:00 +11°C° 0.1 mm 4 mps 761 mmHg 56%
    13:00 +11°C° 0.1 mm 4 mps 761 mmHg 54%
    14:00 +11°C° 0.1 mm 4 mps 761 mmHg 53%
    15:00 +11°C° 0.1 mm 4 mps 761 mmHg 51%
    16:00 +10°C° 0 mm 4 mps 761 mmHg 56%
    17:00 +9°C° 0 mm 3 mps 761 mmHg 60%
    18:00 +8°C° 0 mm 2 mps 761 mmHg 64%
    19:00 +8°C° 0 mm 2 mps 762 mmHg 68%
    20:00 +7°C° 0 mm 2 mps 762 mmHg 71%
    21:00 +6°C° 0 mm 2 mps 763 mmHg 75%
    22:00 +6°C° 0 mm 2 mps 763 mmHg 77%
    23:00 +6°C° 0 mm 1 mps 763 mmHg 80%

    Tomorrow, 19 March, Tuesday

    Time Temperature Precipitation Wind Pressure Humidity
    00:00 +6°C° 0 mm 1 mps 764 mmHg 83%
    01:00 +5°C° 0 mm 1 mps 764 mmHg 84%
    02:00 +5°C° 0 mm 1 mps 764 mmHg 86%
    03:00 +5°C° 0 mm 1 mps 764 mmHg 88%
    04:00 +5°C° 0 mm 1 mps 764 mmHg 88%
    05:00 +3°C° 0 mm 0 mps 765 mmHg 88%
    06:00 +3°C° 0 mm 0 mps 765 mmHg 88%
    07:00 +5°C° 0 mm 0 mps 765 mmHg 82%
    08:00 +6°C° 0 mm 0 mps 766 mmHg 76%
    09:00 +8°C° 0 mm 0 mps 766 mmHg 69%
    10:00 +9°C° 0 mm 0 mps 766 mmHg 63%
    11:00 +11°C° 0 mm 0 mps 766 mmHg 58%
    12:00 +12°C° 0 mm 0 mps 766 mmHg 52%
    13:00 +13°C° 0 mm 1 mps 766 mmHg 50%
    14:00 +13°C° 0 mm 1 mps 766 mmHg 48%
    15:00 +14°C° 0 mm 1 mps 766 mmHg 46%
    16:00 +12°C° 0 mm 1 mps 766 mmHg 50%
    17:00 +10°C° 0 mm 0 mps 766 mmHg 53%
    18:00 +9°C° 0 mm 0 mps 767 mmHg 57%
    19:00 +10°C° 0 mm 1 mps 767 mmHg 59%
    20:00 +9°C° 0 mm 1 mps 768 mmHg 62%
    21:00 +8°C° 0 mm 1 mps 768 mmHg 64%
    22:00 +8°C° 0 mm 1 mps 768 mmHg 65%
    23:00 +7°C° 0 mm 1 mps 769 mmHg 66%

    Day after tomorrow, 20 March, Wednesday

    Time Temperature Precipitation Wind Pressure Humidity
    00:00 +7°C° 0 mm 1 mps 769 mmHg 68%
    01:00 +7°C° 0 mm 1 mps 769 mmHg 68%
    02:00 +6°C° 0 mm 1 mps 769 mmHg 68%
    03:00 +6°C° 0 mm 1 mps 769 mmHg 68%
    04:00 +6°C° 0 mm 1 mps 769 mmHg 68%
    05:00 +4°C° 0 mm 0 mps 770 mmHg 68%
    06:00 +4°C° 0 mm 0 mps 770 mmHg 68%
    07:00 +7°C° 0 mm 1 mps 770 mmHg 64%
    08:00 +9°C° 0 mm 1 mps 770 mmHg 59%
    09:00 +10°C° 0 mm 1 mps 770 mmHg 54%
    10:00 +11°C° 0 mm 1 mps 770 mmHg 51%
    11:00 +13°C° 0 mm 1 mps 770 mmHg 48%
    12:00 +14°C° 0 mm 2 mps 770 mmHg 45%
    13:00 +14°C° 0 mm 2 mps 770 mmHg 44%
    14:00 +15°C° 0 mm 2 mps 770 mmHg 44%
    15:00 +15°C° 0 mm 2 mps 770 mmHg 44%
    16:00 +14°C° 0 mm 2 mps 770 mmHg 49%
    17:00 +13°C° 0 mm 2 mps 770 mmHg 54%
    18:00 +10°C° 0 mm 2 mps 770 mmHg 60%
    19:00 +10°C° 0 mm 2 mps 770 mmHg 62%
    20:00 +9°C° 0 mm 2 mps 770 mmHg 65%
    21:00 +8°C° 0 mm 2 mps 770 mmHg 68%
    22:00 +8°C° 0 mm 2 mps 770 mmHg 69%
    23:00 +8°C° 0 mm 1 mps 770 mmHg 71%

    21 March, Thursday

    Time Temperature Precipitation Wind Pressure Humidity
    00:00 +8°C° 0 mm 1 mps 770 mmHg 72%
    01:00 +7°C° 0 mm 1 mps 770 mmHg 73%
    02:00 +7°C° 0 mm 1 mps 770 mmHg 74%
    03:00 +7°C° 0 mm 1 mps 770 mmHg 75%
    04:00 +6°C° 0 mm 2 mps 770 mmHg 76%
    05:00 +5°C° 0 mm 2 mps 770 mmHg 76%
    06:00 +5°C° 0 mm 2 mps 770 mmHg 77%
    07:00 +7°C° 0 mm 2 mps 770 mmHg 70%
    08:00 +8°C° 0 mm 2 mps 770 mmHg 64%
    09:00 +10°C° 0 mm 2 mps 770 mmHg 57%
    10:00 +11°C° 0 mm 3 mps 770 mmHg 51%
    11:00 +13°C° 0 mm 3 mps 770 mmHg 46%
    12:00 +14°C° 0 mm 3 mps 769 mmHg 40%
    13:00 +16°C° 0 mm 3 mps 769 mmHg 40%
    14:00 +16°C° 0 mm 3 mps 768 mmHg 39%
    15:00 +16°C° 0 mm 3 mps 768 mmHg 39%
    16:00 +15°C° 0 mm 2 mps 768 mmHg 45%
    17:00 +14°C° 0 mm 2 mps 768 mmHg 50%
    18:00 +12°C° 0 mm 2 mps 768 mmHg 56%
    19:00 +10°C° 0 mm 2 mps 768 mmHg 59%
    20:00 +11°C° 0 mm 1 mps 768 mmHg 63%
    21:00 +10°C° 0 mm 1 mps 768 mmHg 66%
    22:00 +9°C° 0 mm 1 mps 768 mmHg 67%
    23:00 +9°C° 0 mm 1 mps 768 mmHg 68%

    22 March, Friday

    Time Temperature Precipitation Wind Pressure Humidity
    00:00 +9°C° 0 mm 1 mps 768 mmHg 69%
    01:00 +8°C° 0 mm 1 mps 768 mmHg 70%
    02:00 +8°C° 0 mm 1 mps 768 mmHg 70%
    03:00 +8°C° 0 mm 1 mps 768 mmHg 71%
    04:00 +7°C° 0 mm 1 mps 768 mmHg 73%
    05:00 +7°C° 0 mm 1 mps 769 mmHg 76%
    06:00 +7°C° 0 mm 1 mps 769 mmHg 78%
    07:00 +8°C° 0 mm 2 mps 769 mmHg 75%
    08:00 +9°C° 0 mm 2 mps 769 mmHg 72%
    09:00 +12°C° 0 mm 2 mps 769 mmHg 69%
    10:00 +14°C° 0 mm 2 mps 769 mmHg 64%
    11:00 +14°C° 0 mm 3 mps 769 mmHg 60%
    12:00 +17°C° 0 mm 3 mps 769 mmHg 55%
    13:00 +17°C° 0 mm 3 mps 768 mmHg 53%
    14:00 +18°C° 0 mm 3 mps 768 mmHg 51%
    15:00 +18°C° 0 mm 2 mps 767 mmHg 49%
    16:00 +17°C° 0 mm 2 mps 767 mmHg 55%
    17:00 +15°C° 0 mm 2 mps 767 mmHg 60%
    18:00 +14°C° 0 mm 1 mps 767 mmHg 66%
    19:00 +13°C° 0 mm 1 mps 767 mmHg 69%
    20:00 +12°C° 0 mm 1 mps 767 mmHg 72%
    21:00 +11°C° 0 mm 1 mps 767 mmHg 75%
    22:00 +11°C° 0 mm 1 mps 767 mmHg 77%
    23:00 +10°C° 0 mm 1 mps 767 mmHg 79%

    23 March, Saturday

    Time Temperature Precipitation Wind Pressure Humidity
    00:00 +10°C° 0 mm 1 mps 767 mmHg 80%
    01:00 +10°C° 0 mm 1 mps 766 mmHg 82%
    02:00 +9°C° 0 mm 1 mps 766 mmHg 83%
    03:00 +9°C° 0 mm 1 mps 766 mmHg 84%
    04:00 +8°C° 0 mm 1 mps 766 mmHg 85%
    05:00 +8°C° 0 mm 1 mps 766 mmHg 85%
    06:00 +8°C° 0 mm 1 mps 766 mmHg 86%
    07:00 +10°C° 0 mm 1 mps 766 mmHg 79%
    08:00 +11°C° 0 mm 1 mps 766 mmHg 73%
    09:00 +13°C° 0 mm 1 mps 766 mmHg 66%
    10:00 +15°C° 0 mm 1 mps 766 mmHg 61%
    11:00 +16°C° 0 mm 1 mps 765 mmHg 56%
    12:00 +19°C° 0 mm 1 mps 765 mmHg 51%
    13:00 +19°C° 0 mm 1 mps 765 mmHg 49%
    14:00 +20°C° 0 mm 1 mps 764 mmHg 48%
    15:00 +20°C° 0 mm 1 mps 764 mmHg 46%
    16:00 +19°C° 0 mm 1 mps 764 mmHg 50%
    17:00 +16°C° 0 mm 0 mps 764 mmHg 55%
    18:00 +14°C° 0 mm 0 mps 764 mmHg 59%
    19:00 +13°C° 0 mm 0 mps 764 mmHg 62%
    20:00 +13°C° 0 mm 0 mps 765 mmHg 64%
    21:00 +12°C° 0 mm 0 mps 765 mmHg 67%
    22:00 +12°C° 0 mm 0 mps 765 mmHg 69%
    23:00 +11°C° 0 mm 0 mps 765 mmHg 71%
    Show more